Location: Antoign�
(47.0844°N, 0.1131°W)
Time: 03:54:20
(UTC+00:00)

IRS-1C Rocket - Pass Details

Date: 03 March 2021
Orbit: 800 x 806 km, 99.0° (Epoch: 17 April)

Event Time Altitude Azimuth Distance (km) Brightness Sun altitude
Rises 18:05:02 0° 154° (SSE) 3,303 7.1 -3.5°
Reaches altitude 10° 18:07:22 10° 151° (SSE) 2,378 6.3 -3.9°
Maximum altitude 18:12:33 64° 71° (ENE) 889 4.1 -4.8°
Drops below altitude 10° 18:17:47 10° 351° (N) 2,398 6.7 -5.7°
Sets 18:20:09 0° 348° (NNW) 3,333 7.4 -6.1°
